Location: Tucson
(32.2217°N, 110.9265°W)
Time: 05:42:15
(UTC-07:00)

Envisat - Visible Passes

Search period start: 11 December 2019 00:00
Search period end: 21 December 2019 00:00
Orbit: 764 x 766 km, 98.1° (Epoch: 11 December)

Date Brightness Start Highest point End Pass type
(mag) Time Alt. Az. Time Alt. Az. Time Alt. Az.
11 Dec 2.9 18:18:04 10° SSE 18:23:06 71° ENE 18:28:10 10° N visible
12 Dec 4.8 06:32:06 10° NNE 06:36:45 36° E 06:41:22 10° SSE visible
12 Dec 3.8 17:42:12 10° SE 17:46:32 29° ENE 17:50:53 10° NNE visible
12 Dec 5.2 19:21:21 10° SSW 19:25:27 25° W 19:29:36 10° NW visible
13 Dec 6.1 05:57:01 10° ENE 05:59:46 15° E 06:02:30 10° SE visible
13 Dec 3.5 18:43:35 10° S 18:48:35 62° W 18:53:36 10° NNW visible
14 Dec 3.1 18:06:57 10° SSE 18:11:52 54° ENE 18:16:48 10° N visible
14 Dec 6.1 19:48:49 10° WSW 19:51:08 13° W 19:53:27 10° WNW visible
15 Dec 5.3 06:21:08 10° NE 06:25:26 27° E 06:29:42 10° SSE visible
15 Dec 4.8 19:09:37 10° SSW 19:14:07 32° W 19:18:39 10° NW visible
16 Dec 6.4 05:47:13 10° ENE 05:48:23 11° E 05:49:34 10° ESE visible
16 Dec 3.1 18:32:14 10° S 18:37:17 81° WSW 18:42:23 10° NNW visible
17 Dec 4.0 06:46:03 10° NNE 06:51:00 52° E 06:55:55 10° S visible
17 Dec 3.4 17:55:54 10° SE 18:00:38 41° ENE 18:05:23 10° N visible
17 Dec 5.7 19:36:28 10° SW 19:39:46 17° W 19:43:04 10° NW visible
18 Dec 5.8 06:10:16 10° NE 06:14:06 21° E 06:17:53 10° SE visible
18 Dec 4.3 18:58:02 10° S 19:02:48 42° W 19:07:37 10° NNW visible
19 Dec 2.9 18:20:58 10° SSE 18:26:01 79° ENE 18:31:07 10° N visible
20 Dec 4.6 06:34:57 10° NNE 06:39:42 39° E 06:44:25 10° SSE visible
20 Dec 3.7 17:44:58 10° SE 17:49:26 32° ENE 17:53:54 10° N visible
20 Dec 5.4 19:24:29 10° SSW 19:28:24 23° W 19:32:21 10° NW visible
